STARLINK-1805, 46705

Orbit data source: Space-Track

STARLINK-1805, 46705 is a payload satellite owned by SpaceX/Seattle (US) in LEO that was launched on Sun, 18 Oct 2020 UTC via an FALCON 9 launch vehicle from the Air Force Eastern Test Range (AFETR). Payload-class satellites include a variety of spacecraft equipped with specific instruments for various scientific and technological missions. These include communications satellites like Starlink; space stations such as the ISS; scientific satellites like the Hubble; Earth observation satellites from companies like Planet Labs, Umbra, and HawkEye 360; GPS; miniature CubeSats for education and research; and military/defense satellites.

Loading next visibility...
Identifier
46705, 2020-073AM
Orbit
LEO
Country
Flag of USUS
Related business
Manufacturer
SpaceX/Seattle
Mission
Operational Commercial Communications
Bus & Motor
STARLINK, Unknown motor
Mass
260 kg wet, ~248 kg dry
Launch date (UTC)
2020-10-18 (5 years ago)
Launch vehicle
FALCON 9
Launch site
Air Force Eastern Test Range (AFETR)
Object type
Payload
Rocket body
Debris
Shape & HBR
Box + 1 Pan, 10.1 m
Radar Cross Section
13.562 m², Large (>1 m²)

Expand to show TLE details & history
Last TLE update: 11 hours ago

TLE from 11 hours ago
0 STARLINK-1805
1 46705U 20073AM  25299.04744491  .00002407  00000-0  18041-3 0  9994
2 46705  53.0526 141.0507 0001481  87.5036 272.6122 15.06410199276627
Epoch: 2025-10-26T01:08Z
TLE epoch observation values (Epoch: 2025-10-26T01:08:19.240Z)
Latitude
-0.00005°
Longitude
89.30125°
Altitude
548.013 km
Speed
7.589 km/s
True Right ascension
09h 24m 12s
True Declination
0° 00' 00"
Sunlit
Object was in daylight at epoch
Visualization orbit readout
Latitude
Unknown
Longitude
Unknown
Altitude
Unknown
Speed
Unknown
Apparent Right ascension
Unknown
Apparent Declination
Unknown
Sunlit
N/A
Visualization observer readout
Local Sidereal Time
07:32:57
Azimuth
Unknown
Elevation
Unknown
Doppler factor
Unknown
Orbital elements
Apogee altitude
548.477 km
Perigee altitude
546.426 km
Semi-major axis
6,925.588 km
Eccentricity
0.00015
Inclination
53.0526°
RAAN
141.0507°
Arg. of periapsis
87.5036°
True anomaly
272.59525°
Mean anomaly
272.6122°
Eccentric anomaly
272.60372°
Mean motion
3.76581 °/min
Orbital period
95.6 mins
BSTAR
0.00018041
Loading maneuver chart data...
Computing Atmospheric mass density...

Documentation

Showing up to 5 results
|